This is the latest recevied weather packets stored in our database for station/object VK3VJP-13. If no packets are shown the sender has not sent any weather packets the latest 10 day(s).
| Time | Temp. | Humidity | Pressure | Rain* | Wind** | Luminosity | Snow |
|---|---|---|---|---|---|---|---|
| 1777775589 | 11.11° C | 93% | 1009.8 hPa | 0.25 mm | - | - | - |
| 1777774989 | 10.56° C | 93% | 1009.9 hPa | 0.76 mm | - | - | - |
| 1777774689 | 10.56° C | 93% | 1009.9 hPa | 0.76 mm | - | - | - |
| 1777774389 | 10.56° C | 92% | 1009.8 hPa | 0.76 mm | - | - | - |
| 1777774089 | 10.56° C | 93% | 1009.9 hPa | 0.76 mm | - | - | - |
| 1777773789 | 11.11° C | 92% | 1010 hPa | 0.76 mm | - | - | - |
| 1777773489 | 11.11° C | 92% | 1010.3 hPa | 1.27 mm | - | - | - |
| 1777773189 | 11.67° C | 93% | 1010.2 hPa | 1.27 mm | - | - | - |
| 1777772889 | 11.67° C | 95% | 1010.1 hPa | 2.79 mm | - | - | - |
| 1777772589 | 11.11° C | 95% | 1010.1 hPa | 3.56 mm | - | - | - |
| 1777772289 | 11.11° C | 93% | 1010 hPa | 4.83 mm | - | - | - |
| 1777771989 | 11.11° C | 93% | 1010.2 hPa | 5.08 mm | - | - | - |
| 1777771689 | 11.11° C | 94% | 1009.8 hPa | 4.57 mm | - | - | - |
| 1777771389 | 11.11° C | 94% | 1009.6 hPa | 5.08 mm | - | - | - |
| 1777771089 | 11.11° C | 94% | 1009.9 hPa | 5.33 mm | - | - | - |
| 1777770789 | 11.11° C | 95% | 1009.9 hPa | 5.84 mm | - | - | - |
| 1777770489 | 11.11° C | 95% | 1010.2 hPa | 7.11 mm | - | - | - |
| 1777770189 | 11.11° C | 94% | 1010.2 hPa | 8.13 mm | - | - | - |
| 1777769889 | 11.11° C | 94% | 1010 hPa | 8.13 mm | - | - | - |
| 1777769589 | 10.56° C | 93% | 1010 hPa | 8.13 mm | - | - | - |
| 1777769289 | 11.11° C | 93% | 1010.4 hPa | 6.6 mm | - | - | - |
| 1777768989 | 11.11° C | 92% | 1009.8 hPa | 5.84 mm | - | - | - |
| 1777768689 | 11.67° C | 92% | 1009.9 hPa | 4.83 mm | - | - | - |
| 1777768389 | 11.67° C | 90% | 1010 hPa | 7.37 mm | - | - | - |
| 1777768089 | 12.78° C | 89% | 1009.7 hPa | 8.13 mm | - | - | - |
* Rain latest hour (hover to see other rain measurements)
** Current wind speed in m/s (hover to see current wind gust speed)